owner,sensor,date,latitude,longitude,vertical_datum,sea_water_practical_salinity,qcFlag 
DISL,ioos:station:DISL:KATA:1,2016-08-01T00:00:00Z,30.2583,-88.2131,3.842,25.31,1111122 
DISL,ioos:station:DISL:KATA:1,2016-08-01T00:30:00Z,30.2583,-88.2131,3.892,25.31,1111122 
DISL,ioos:station:DISL:KATA:1,2016-08-01T01:00:00Z,30.2583,-88.2131,3.861,25.3,1111122 
DISL,ioos:station:DISL:KATA:1,2016-08-01T01:30:00Z,30.2583,-88.2131,3.863,25.32,1111122 
DISL,ioos:station:DISL:KATA:1,2016-08-01T02:00:00Z,30.2583,-88.2131,3.829,25.31,1111122 
DISL,ioos:station:DISL:KATA:1,2016-08-01T02:30:00Z,30.2583,-88.2131,3.812,25.3,1111122 
DISL,ioos:station:DISL:KATA:1,2016-08-01T03:00:00Z,30.2583,-88.2131,3.843,25.29,1111122 
DISL,ioos:station:DISL:KATA:1,2016-08-01T03:30:00Z,30.2583,-88.2131,3.89,25.3,1111122 
DISL,ioos:station:DISL:KATA:1,2016-08-01T04:00:00Z,30.2583,-88.2131,3.965,25.28,1111122 
DISL,ioos:station:DISL:KATA:1,2016-08-01T04:30:00Z,30.2583,-88.2131,4.016,25.27,1111122 
DISL,ioos:station:DISL:KATA:1,2016-08-01T05:00:00Z,30.2583,-88.2131,4.062,25.27,1111122 
DISL,ioos:station:DISL:KATA:1,2016-08-01T05:30:00Z,30.2583,-88.2131,4.094,25.26,1111122 
DISL,ioos:station:DISL:KATA:1,2016-08-01T06:00:00Z,30.2583,-88.2131,4.124,25.21,1111122 
DISL,ioos:station:DISL:KATA:1,2016-08-01T06:30:00Z,30.2583,-88.2131,4.146,25.2,1111122 
DISL,ioos:station:DISL:KATA:1,2016-08-01T07:00:00Z,30.2583,-88.2131,4.164,25.19,1111122 
DISL,ioos:station:DISL:KATA:1,2016-08-01T07:30:00Z,30.2583,-88.2131,4.173,25.17,1111122 
DISL,ioos:station:DISL:KATA:1,2016-08-01T08:00:00Z,30.2583,-88.2131,4.186,25.14,1111122 
DISL,ioos:station:DISL:KATA:1,2016-08-01T08:30:00Z,30.2583,-88.2131,4.213,25.12,1111122 
DISL,ioos:station:DISL:KATA:1,2016-08-01T09:00:00Z,30.2583,-88.2131,4.233,25.1,1111122 
DISL,ioos:station:DISL:KATA:1,2016-08-01T09:30:00Z,30.2583,-88.2131,4.258,25.09,1111122 
DISL,ioos:station:DISL:KATA:1,2016-08-01T10:00:00Z,30.2583,-88.2131,4.291,25.06,1111122 
DISL,ioos:station:DISL:KATA:1,2016-08-01T10:30:00Z,30.2583,-88.2131,4.326,25.06,1111122 
DISL,ioos:station:DISL:KATA:1,2016-08-01T11:00:00Z,30.2583,-88.2131,4.381,25.05,1111122 
DISL,ioos:station:DISL:KATA:1,2016-08-01T11:30:00Z,30.2583,-88.2131,4.415,25.05,1111122 
DISL,ioos:station:DISL:KATA:1,2016-08-01T12:00:00Z,30.2583,-88.2131,4.455,25.05,1111122 
DISL,ioos:station:DISL:KATA:1,2016-08-01T12:30:00Z,30.2583,-88.2131,4.48,25.03,1111122 
DISL,ioos:station:DISL:KATA:1,2016-08-01T13:00:00Z,30.2583,-88.2131,4.486,25.03,1111122 
DISL,ioos:station:DISL:KATA:1,2016-08-01T13:30:00Z,30.2583,-88.2131,4.489,24.95,1111122 
DISL,ioos:station:DISL:KATA:1,2016-08-01T14:00:00Z,30.2583,-88.2131,4.463,24.92,1111122 
DISL,ioos:station:DISL:KATA:1,2016-08-01T14:30:00Z,30.2583,-88.2131,4.439,24.92,1111122 
DISL,ioos:station:DISL:KATA:1,2016-08-01T15:00:00Z,30.2583,-88.2131,4.42,24.91,1111122 
DISL,ioos:station:DISL:KATA:1,2016-08-01T15:30:00Z,30.2583,-88.2131,4.392,24.89,1111122 
DISL,ioos:station:DISL:KATA:1,2016-08-01T16:00:00Z,30.2583,-88.2131,4.366,24.98,1111122 
DISL,ioos:station:DISL:KATA:1,2016-08-01T16:30:00Z,30.2583,-88.2131,4.367,24.97,1111122 
DISL,ioos:station:DISL:KATA:1,2016-08-01T17:00:00Z,30.2583,-88.2131,4.37,24.97,1111122 
DISL,ioos:station:DISL:KATA:1,2016-08-01T17:30:00Z,30.2583,-88.2131,4.352,24.97,1111122 
DISL,ioos:station:DISL:KATA:1,2016-08-01T18:00:00Z,30.2583,-88.2131,4.329,24.98,1111122 
DISL,ioos:station:DISL:KATA:1,2016-08-01T18:30:00Z,30.2583,-88.2131,4.289,24.84,1111122 
DISL,ioos:station:DISL:KATA:1,2016-08-01T19:00:00Z,30.2583,-88.2131,4.213,25.01,1111122 
DISL,ioos:station:DISL:KATA:1,2016-08-01T19:30:00Z,30.2583,-88.2131,4.144,25.02,1111122 
DISL,ioos:station:DISL:KATA:1,2016-08-01T20:00:00Z,30.2583,-88.2131,4.087,25.01,1111122 
DISL,ioos:station:DISL:KATA:1,2016-08-01T20:30:00Z,30.2583,-88.2131,4.024,24.99,1111122 
DISL,ioos:station:DISL:KATA:1,2016-08-01T21:00:00Z,30.2583,-88.2131,3.972,24.93,1111122 
DISL,ioos:station:DISL:KATA:1,2016-08-01T21:30:00Z,30.2583,-88.2131,3.932,24.87,1111122 
DISL,ioos:station:DISL:KATA:1,2016-08-01T22:00:00Z,30.2583,-88.2131,3.9,24.81,1111122 
DISL,ioos:station:DISL:KATA:1,2016-08-01T22:30:00Z,30.2583,-88.2131,3.888,24.78,1111122 
DISL,ioos:station:DISL:KATA:1,2016-08-01T23:00:00Z,30.2583,-88.2131,3.88,24.73,1111122 
DISL,ioos:station:DISL:KATA:1,2016-08-01T23:30:00Z,30.2583,-88.2131,3.871,24.65,1111122 
DISL,ioos:station:DISL:KATA:1,2016-08-02T00:00:00Z,30.2583,-88.2131,3.888,24.63,1111122 
DISL,ioos:station:DISL:KATA:1,2016-08-02T00:30:00Z,30.2583,-88.2131,3.901,24.65,1111122 
DISL,ioos:station:DISL:KATA:1,2016-08-02T01:00:00Z,30.2583,-88.2131,3.915,24.48,1111122 
DISL,ioos:station:DISL:KATA:1,2016-08-02T01:30:00Z,30.2583,-88.2131,3.936,24.49,1111122 
DISL,ioos:station:DISL:KATA:1,2016-08-02T02:00:00Z,30.2583,-88.2131,3.956,24.69,1111122 
DISL,ioos:station:DISL:KATA:1,2016-08-02T02:30:00Z,30.2583,-88.2131,3.952,24.66,1111122 
DISL,ioos:station:DISL:KATA:1,2016-08-02T03:00:00Z,30.2583,-88.2131,3.961,24.38,1111122 
DISL,ioos:station:DISL:KATA:1,2016-08-02T03:30:00Z,30.2583,-88.2131,3.969,24.7,1111122 
DISL,ioos:station:DISL:KATA:1,2016-08-02T04:00:00Z,30.2583,-88.2131,3.985,24.66,1111122 
DISL,ioos:station:DISL:KATA:1,2016-08-02T04:30:00Z,30.2583,-88.2131,4.007,24.67,1111122 
DISL,ioos:station:DISL:KATA:1,2016-08-02T05:00:00Z,30.2583,-88.2131,4.049,24.65,1111122 
DISL,ioos:station:DISL:KATA:1,2016-08-02T05:30:00Z,30.2583,-88.2131,4.075,24.68,1111122 
DISL,ioos:station:DISL:KATA:1,2016-08-02T06:00:00Z,30.2583,-88.2131,4.11,24.7,1111122 
DISL,ioos:station:DISL:KATA:1,2016-08-02T06:30:00Z,30.2583,-88.2131,4.135,24.73,1111122 
DISL,ioos:station:DISL:KATA:1,2016-08-02T07:00:00Z,30.2583,-88.2131,4.17,24.74,1111122 
DISL,ioos:station:DISL:KATA:1,2016-08-02T07:30:00Z,30.2583,-88.2131,4.208,24.76,1111122 
DISL,ioos:station:DISL:KATA:1,2016-08-02T08:00:00Z,30.2583,-88.2131,4.231,24.85,1111122 
DISL,ioos:station:DISL:KATA:1,2016-08-02T08:30:00Z,30.2583,-88.2131,4.257,24.86,1111122 
DISL,ioos:station:DISL:KATA:1,2016-08-02T09:00:00Z,30.2583,-88.2131,4.273,24.81,1111122 
DISL,ioos:station:DISL:KATA:1,2016-08-02T09:30:00Z,30.2583,-88.2131,4.299,24.81,1111122 
DISL,ioos:station:DISL:KATA:1,2016-08-02T10:00:00Z,30.2583,-88.2131,4.322,24.82,1111122 
DISL,ioos:station:DISL:KATA:1,2016-08-02T10:30:00Z,30.2583,-88.2131,4.333,24.83,1111122 
DISL,ioos:station:DISL:KATA:1,2016-08-02T11:00:00Z,30.2583,-88.2131,4.361,24.85,1111122 
DISL,ioos:station:DISL:KATA:1,2016-08-02T11:30:00Z,30.2583,-88.2131,4.395,24.84,1111122 
DISL,ioos:station:DISL:KATA:1,2016-08-02T12:00:00Z,30.2583,-88.2131,4.454,24.88,1111122 
DISL,ioos:station:DISL:KATA:1,2016-08-02T12:30:00Z,30.2583,-88.2131,4.459,24.82,1111122 
DISL,ioos:station:DISL:KATA:1,2016-08-02T13:00:00Z,30.2583,-88.2131,4.467,24.86,1111122 
DISL,ioos:station:DISL:KATA:1,2016-08-02T13:30:00Z,30.2583,-88.2131,4.472,24.94,1111122 
DISL,ioos:station:DISL:KATA:1,2016-08-02T14:00:00Z,30.2583,-88.2131,4.49,24.98,1111122 
DISL,ioos:station:DISL:KATA:1,2016-08-02T14:30:00Z,30.2583,-88.2131,4.523,25.16,1111122 
DISL,ioos:station:DISL:KATA:1,2016-08-02T15:00:00Z,30.2583,-88.2131,4.516,25.23,1111122 
DISL,ioos:station:DISL:KATA:1,2016-08-02T15:30:00Z,30.2583,-88.2131,4.518,25.26,1111122 
DISL,ioos:station:DISL:KATA:1,2016-08-02T16:00:00Z,30.2583,-88.2131,4.495,25.33,1111122 
DISL,ioos:station:DISL:KATA:1,2016-08-02T16:30:00Z,30.2583,-88.2131,4.465,25.34,1111122 
DISL,ioos:station:DISL:KATA:1,2016-08-02T17:00:00Z,30.2583,-88.2131,4.434,25.39,1111122 
DISL,ioos:station:DISL:KATA:1,2016-08-02T17:30:00Z,30.2583,-88.2131,4.412,25.4,1111122 
DISL,ioos:station:DISL:KATA:1,2016-08-02T18:00:00Z,30.2583,-88.2131,4.382,25.38,1111122 
DISL,ioos:station:DISL:KATA:1,2016-08-02T18:30:00Z,30.2583,-88.2131,4.378,25.41,1111122 
DISL,ioos:station:DISL:KATA:1,2016-08-02T19:00:00Z,30.2583,-88.2131,4.348,25.42,1111122 
DISL,ioos:station:DISL:KATA:1,2016-08-02T19:30:00Z,30.2583,-88.2131,4.289,25.39,1111122 
DISL,ioos:station:DISL:KATA:1,2016-08-02T20:00:00Z,30.2583,-88.2131,4.256,25.31,1111122 
DISL,ioos:station:DISL:KATA:1,2016-08-02T20:30:00Z,30.2583,-88.2131,4.198,25.19,1111122 
DISL,ioos:station:DISL:KATA:1,2016-08-02T21:00:00Z,30.2583,-88.2131,4.15,25.05,1111122 
DISL,ioos:station:DISL:KATA:1,2016-08-02T21:30:00Z,30.2583,-88.2131,4.105,24.91,1111122 
DISL,ioos:station:DISL:KATA:1,2016-08-02T22:00:00Z,30.2583,-88.2131,4.06,24.85,1111122 
DISL,ioos:station:DISL:KATA:1,2016-08-02T22:30:00Z,30.2583,-88.2131,4.009,24.78,1111122 
DISL,ioos:station:DISL:KATA:1,2016-08-02T23:00:00Z,30.2583,-88.2131,3.988,24.79,1111122 
DISL,ioos:station:DISL:KATA:1,2016-08-02T23:30:00Z,30.2583,-88.2131,3.958,24.74,1111122 
DISL,ioos:station:DISL:KATA:1,2016-08-03T00:00:00Z,30.2583,-88.2131,3.941,24.71,1111122 
DISL,ioos:station:DISL:KATA:1,2016-08-03T00:30:00Z,30.2583,-88.2131,3.95,23.8,1111122 
DISL,ioos:station:DISL:KATA:1,2016-08-03T01:00:00Z,30.2583,-88.2131,3.975,23.32,1111122 
DISL,ioos:station:DISL:KATA:1,2016-08-03T01:30:00Z,30.2583,-88.2131,3.999,24.6,1111122 
DISL,ioos:station:DISL:KATA:1,2016-08-03T02:00:00Z,30.2583,-88.2131,4.023,24.63,1111122 
DISL,ioos:station:DISL:KATA:1,2016-08-03T02:30:00Z,30.2583,-88.2131,4.035,24.67,1111122 
DISL,ioos:station:DISL:KATA:1,2016-08-03T03:00:00Z,30.2583,-88.2131,4.047,23.68,1111122 
DISL,ioos:station:DISL:KATA:1,2016-08-03T03:30:00Z,30.2583,-88.2131,4.048,24.06,1111122 
DISL,ioos:station:DISL:KATA:1,2016-08-03T04:00:00Z,30.2583,-88.2131,4.041,24.82,1111122 
DISL,ioos:station:DISL:KATA:1,2016-08-03T04:30:00Z,30.2583,-88.2131,4.06,24.86,1111122 
DISL,ioos:station:DISL:KATA:1,2016-08-03T05:00:00Z,30.2583,-88.2131,4.09,24.44,1111122 
DISL,ioos:station:DISL:KATA:1,2016-08-03T05:30:00Z,30.2583,-88.2131,4.107,24.81,1111122 
DISL,ioos:station:DISL:KATA:1,2016-08-03T06:00:00Z,30.2583,-88.2131,4.151,25.15,1111122 
DISL,ioos:station:DISL:KATA:1,2016-08-03T06:30:00Z,30.2583,-88.2131,4.182,24.79,1111122 
DISL,ioos:station:DISL:KATA:1,2016-08-03T07:00:00Z,30.2583,-88.2131,4.216,25.18,1111122 
DISL,ioos:station:DISL:KATA:1,2016-08-03T07:30:00Z,30.2583,-88.2131,4.233,25.14,1111122 
DISL,ioos:station:DISL:KATA:1,2016-08-03T08:00:00Z,30.2583,-88.2131,4.242,25.12,1111122 
DISL,ioos:station:DISL:KATA:1,2016-08-03T08:30:00Z,30.2583,-88.2131,4.259,25.13,1111122 
DISL,ioos:station:DISL:KATA:1,2016-08-03T09:00:00Z,30.2583,-88.2131,4.275,25.14,1111122 
DISL,ioos:station:DISL:KATA:1,2016-08-03T09:30:00Z,30.2583,-88.2131,4.294,25.15,1111122 
DISL,ioos:station:DISL:KATA:1,2016-08-03T10:00:00Z,30.2583,-88.2131,4.301,25.17,1111122 
DISL,ioos:station:DISL:KATA:1,2016-08-03T10:30:00Z,30.2583,-88.2131,4.304,25.23,1111122 
DISL,ioos:station:DISL:KATA:1,2016-08-03T11:00:00Z,30.2583,-88.2131,4.323,25.29,1111122 
DISL,ioos:station:DISL:KATA:1,2016-08-03T11:30:00Z,30.2583,-88.2131,4.343,25.25,1111122 
DISL,ioos:station:DISL:KATA:1,2016-08-03T12:00:00Z,30.2583,-88.2131,4.382,25.31,1111122 
DISL,ioos:station:DISL:KATA:1,2016-08-03T12:30:00Z,30.2583,-88.2131,4.406,25.32,1111122 
DISL,ioos:station:DISL:KATA:1,2016-08-03T13:00:00Z,30.2583,-88.2131,4.436,25.38,1111122 
DISL,ioos:station:DISL:KATA:1,2016-08-03T13:30:00Z,30.2583,-88.2131,4.472,25.46,1111122 
DISL,ioos:station:DISL:KATA:1,2016-08-03T14:00:00Z,30.2583,-88.2131,4.495,25.51,1111122 
DISL,ioos:station:DISL:KATA:1,2016-08-03T14:30:00Z,30.2583,-88.2131,4.531,25.6,1111122 
DISL,ioos:station:DISL:KATA:1,2016-08-03T15:00:00Z,30.2583,-88.2131,4.531,25.9,1111122 
DISL,ioos:station:DISL:KATA:1,2016-08-03T15:30:00Z,30.2583,-88.2131,4.539,26.05,1111122 
DISL,ioos:station:DISL:KATA:1,2016-08-03T16:00:00Z,30.2583,-88.2131,4.513,24.47,1111122 
DISL,ioos:station:DISL:KATA:1,2016-08-03T16:30:00Z,30.2583,-88.2131,4.483,26.27,1111122 
DISL,ioos:station:DISL:KATA:1,2016-08-03T17:00:00Z,30.2583,-88.2131,4.467,25.1,1111122 
DISL,ioos:station:DISL:KATA:1,2016-08-03T17:30:00Z,30.2583,-88.2131,4.453,26.3,1111122 
DISL,ioos:station:DISL:KATA:1,2016-08-03T18:00:00Z,30.2583,-88.2131,4.419,26.0,1111122 
DISL,ioos:station:DISL:KATA:1,2016-08-03T18:30:00Z,30.2583,-88.2131,4.404,25.77,1111122 
DISL,ioos:station:DISL:KATA:1,2016-08-03T19:00:00Z,30.2583,-88.2131,4.376,26.25,1111122 
DISL,ioos:station:DISL:KATA:1,2016-08-03T19:30:00Z,30.2583,-88.2131,4.362,25.94,1111122 
DISL,ioos:station:DISL:KATA:1,2016-08-03T20:00:00Z,30.2583,-88.2131,4.338,26.23,1111122 
DISL,ioos:station:DISL:KATA:1,2016-08-03T20:30:00Z,30.2583,-88.2131,4.294,26.15,1111122 
DISL,ioos:station:DISL:KATA:1,2016-08-03T21:00:00Z,30.2583,-88.2131,4.232,25.8,1111122 
DISL,ioos:station:DISL:KATA:1,2016-08-03T21:30:00Z,30.2583,-88.2131,4.14,25.53,1111122 
DISL,ioos:station:DISL:KATA:1,2016-08-03T22:00:00Z,30.2583,-88.2131,4.072,25.24,1111122 
DISL,ioos:station:DISL:KATA:1,2016-08-03T22:30:00Z,30.2583,-88.2131,4.065,25.08,1111122 
DISL,ioos:station:DISL:KATA:1,2016-08-03T23:00:00Z,30.2583,-88.2131,4.029,24.99,1111122 
DISL,ioos:station:DISL:KATA:1,2016-08-03T23:30:00Z,30.2583,-88.2131,4.006,24.91,1111122 
DISL,ioos:station:DISL:KATA:1,2016-08-04T00:00:00Z,30.2583,-88.2131,4.001,24.88,1111122 
DISL,ioos:station:DISL:KATA:1,2016-08-04T00:30:00Z,30.2583,-88.2131,4.013,24.87,1111122 
DISL,ioos:station:DISL:KATA:1,2016-08-04T01:00:00Z,30.2583,-88.2131,4.018,24.83,1111122 
DISL,ioos:station:DISL:KATA:1,2016-08-04T01:30:00Z,30.2583,-88.2131,4.036,24.85,1111122 
DISL,ioos:station:DISL:KATA:1,2016-08-04T02:00:00Z,30.2583,-88.2131,4.056,23.87,1111122 
DISL,ioos:station:DISL:KATA:1,2016-08-04T02:30:00Z,30.2583,-88.2131,4.061,24.43,1111122 
DISL,ioos:station:DISL:KATA:1,2016-08-04T03:00:00Z,30.2583,-88.2131,4.07,24.59,1111122 
DISL,ioos:station:DISL:KATA:1,2016-08-04T03:30:00Z,30.2583,-88.2131,4.069,24.84,1111122 
DISL,ioos:station:DISL:KATA:1,2016-08-04T04:00:00Z,30.2583,-88.2131,4.068,24.83,1111122 
DISL,ioos:station:DISL:KATA:1,2016-08-04T04:30:00Z,30.2583,-88.2131,4.08,24.7,1111122 
DISL,ioos:station:DISL:KATA:1,2016-08-04T05:00:00Z,30.2583,-88.2131,4.095,24.14,1111122 
DISL,ioos:station:DISL:KATA:1,2016-08-04T05:30:00Z,30.2583,-88.2131,4.097,24.38,1111122 
DISL,ioos:station:DISL:KATA:1,2016-08-04T06:00:00Z,30.2583,-88.2131,4.118,24.93,1111122 
DISL,ioos:station:DISL:KATA:1,2016-08-04T06:30:00Z,30.2583,-88.2131,4.164,25.59,1111122 
DISL,ioos:station:DISL:KATA:1,2016-08-04T07:00:00Z,30.2583,-88.2131,4.196,25.77,1111122 
DISL,ioos:station:DISL:KATA:1,2016-08-04T07:30:00Z,30.2583,-88.2131,4.223,25.92,1111122 
DISL,ioos:station:DISL:KATA:1,2016-08-04T08:00:00Z,30.2583,-88.2131,4.242,25.91,1111122 
DISL,ioos:station:DISL:KATA:1,2016-08-04T08:30:00Z,30.2583,-88.2131,4.258,25.93,1111122 
DISL,ioos:station:DISL:KATA:1,2016-08-04T09:00:00Z,30.2583,-88.2131,4.257,25.89,1111122 
DISL,ioos:station:DISL:KATA:1,2016-08-04T09:30:00Z,30.2583,-88.2131,4.258,25.94,1111122 
DISL,ioos:station:DISL:KATA:1,2016-08-04T10:00:00Z,30.2583,-88.2131,4.257,25.94,1111122 
DISL,ioos:station:DISL:KATA:1,2016-08-04T10:30:00Z,30.2583,-88.2131,4.263,25.92,1111122 
DISL,ioos:station:DISL:KATA:1,2016-08-04T11:00:00Z,30.2583,-88.2131,4.25,25.88,1111122 
DISL,ioos:station:DISL:KATA:1,2016-08-04T11:30:00Z,30.2583,-88.2131,4.249,25.83,1111122 
DISL,ioos:station:DISL:KATA:1,2016-08-04T12:00:00Z,30.2583,-88.2131,4.26,25.77,1111122 
DISL,ioos:station:DISL:KATA:1,2016-08-04T12:30:00Z,30.2583,-88.2131,4.279,25.79,1111122 
DISL,ioos:station:DISL:KATA:1,2016-08-04T13:00:00Z,30.2583,-88.2131,4.326,25.84,1111122 
DISL,ioos:station:DISL:KATA:1,2016-08-04T13:30:00Z,30.2583,-88.2131,4.36,25.82,1111122 
DISL,ioos:station:DISL:KATA:1,2016-08-04T14:00:00Z,30.2583,-88.2131,4.412,25.85,1111122 
DISL,ioos:station:DISL:KATA:1,2016-08-04T14:30:00Z,30.2583,-88.2131,4.443,25.93,1111122 
DISL,ioos:station:DISL:KATA:1,2016-08-04T15:00:00Z,30.2583,-88.2131,4.463,26.08,1111122 
DISL,ioos:station:DISL:KATA:1,2016-08-04T15:30:00Z,30.2583,-88.2131,4.483,26.09,1111122 
DISL,ioos:station:DISL:KATA:1,2016-08-04T16:00:00Z,30.2583,-88.2131,4.487,26.04,1111122 
DISL,ioos:station:DISL:KATA:1,2016-08-04T16:30:00Z,30.2583,-88.2131,4.446,26.02,1111122 
DISL,ioos:station:DISL:KATA:1,2016-08-04T17:00:00Z,30.2583,-88.2131,4.414,26.05,1111122 
DISL,ioos:station:DISL:KATA:1,2016-08-04T17:30:00Z,30.2583,-88.2131,4.39,26.13,1111122 
DISL,ioos:station:DISL:KATA:1,2016-08-04T18:00:00Z,30.2583,-88.2131,4.409,26.08,1111122 
DISL,ioos:station:DISL:KATA:1,2016-08-04T18:30:00Z,30.2583,-88.2131,4.369,26.23,1111122 
DISL,ioos:station:DISL:KATA:1,2016-08-04T19:00:00Z,30.2583,-88.2131,4.363,26.25,1111122 
DISL,ioos:station:DISL:KATA:1,2016-08-04T19:30:00Z,30.2583,-88.2131,4.354,26.31,1111122 
DISL,ioos:station:DISL:KATA:1,2016-08-04T20:00:00Z,30.2583,-88.2131,4.36,26.36,1111122 
DISL,ioos:station:DISL:KATA:1,2016-08-04T20:30:00Z,30.2583,-88.2131,4.352,26.38,1111122 
DISL,ioos:station:DISL:KATA:1,2016-08-04T21:00:00Z,30.2583,-88.2131,4.301,26.38,1111122 
DISL,ioos:station:DISL:KATA:1,2016-08-04T21:30:00Z,30.2583,-88.2131,4.288,26.31,1111122 
DISL,ioos:station:DISL:KATA:1,2016-08-04T22:00:00Z,30.2583,-88.2131,4.232,26.14,1111122 
DISL,ioos:station:DISL:KATA:1,2016-08-04T22:30:00Z,30.2583,-88.2131,4.195,25.39,1111122 
DISL,ioos:station:DISL:KATA:1,2016-08-04T23:00:00Z,30.2583,-88.2131,4.163,25.77,1111122 
DISL,ioos:station:DISL:KATA:1,2016-08-04T23:30:00Z,30.2583,-88.2131,4.098,26.16,1111122 
DISL,ioos:station:DISL:KATA:1,2016-08-05T00:00:00Z,30.2583,-88.2131,4.086,26.05,1111122 
DISL,ioos:station:DISL:KATA:1,2016-08-05T00:30:00Z,30.2583,-88.2131,4.088,25.92,1111122 
DISL,ioos:station:DISL:KATA:1,2016-08-05T01:00:00Z,30.2583,-88.2131,4.095,25.77,1111122 
DISL,ioos:station:DISL:KATA:1,2016-08-05T01:30:00Z,30.2583,-88.2131,4.106,25.44,1111122 
DISL,ioos:station:DISL:KATA:1,2016-08-05T02:00:00Z,30.2583,-88.2131,4.1,25.66,1111122 
DISL,ioos:station:DISL:KATA:1,2016-08-05T02:30:00Z,30.2583,-88.2131,4.112,24.89,1111122 
DISL,ioos:station:DISL:KATA:1,2016-08-05T03:00:00Z,30.2583,-88.2131,4.125,25.58,1111122 
DISL,ioos:station:DISL:KATA:1,2016-08-05T03:30:00Z,30.2583,-88.2131,4.159,25.72,1111122 
DISL,ioos:station:DISL:KATA:1,2016-08-05T04:00:00Z,30.2583,-88.2131,4.167,25.8,1111122 
DISL,ioos:station:DISL:KATA:1,2016-08-05T04:30:00Z,30.2583,-88.2131,4.172,25.82,1111122 
DISL,ioos:station:DISL:KATA:1,2016-08-05T05:00:00Z,30.2583,-88.2131,4.189,24.75,1111122 
DISL,ioos:station:DISL:KATA:1,2016-08-05T05:30:00Z,30.2583,-88.2131,4.177,25.86,1111122 
DISL,ioos:station:DISL:KATA:1,2016-08-05T06:00:00Z,30.2583,-88.2131,4.177,25.87,1111122 
DISL,ioos:station:DISL:KATA:1,2016-08-05T06:30:00Z,30.2583,-88.2131,4.194,25.89,1111122 
DISL,ioos:station:DISL:KATA:1,2016-08-05T07:00:00Z,30.2583,-88.2131,4.196,25.86,1111122 
DISL,ioos:station:DISL:KATA:1,2016-08-05T07:30:00Z,30.2583,-88.2131,4.223,25.78,1111122 
DISL,ioos:station:DISL:KATA:1,2016-08-05T08:00:00Z,30.2583,-88.2131,4.242,25.84,1111122 
DISL,ioos:station:DISL:KATA:1,2016-08-05T08:30:00Z,30.2583,-88.2131,4.256,25.9,1111122 
DISL,ioos:station:DISL:KATA:1,2016-08-05T09:00:00Z,30.2583,-88.2131,4.276,25.92,1111122 
DISL,ioos:station:DISL:KATA:1,2016-08-05T09:30:00Z,30.2583,-88.2131,4.293,25.96,1111122 
DISL,ioos:station:DISL:KATA:1,2016-08-05T10:00:00Z,30.2583,-88.2131,4.289,26.05,1111122 
DISL,ioos:station:DISL:KATA:1,2016-08-05T10:30:00Z,30.2583,-88.2131,4.278,26.03,1111122 
DISL,ioos:station:DISL:KATA:1,2016-08-05T11:00:00Z,30.2583,-88.2131,4.261,26.09,1111122 
DISL,ioos:station:DISL:KATA:1,2016-08-05T11:30:00Z,30.2583,-88.2131,4.237,26.05,1111122 
DISL,ioos:station:DISL:KATA:1,2016-08-05T12:00:00Z,30.2583,-88.2131,4.222,25.96,1111122 
DISL,ioos:station:DISL:KATA:1,2016-08-05T12:30:00Z,30.2583,-88.2131,4.251,25.96,1111122 
DISL,ioos:station:DISL:KATA:1,2016-08-05T13:00:00Z,30.2583,-88.2131,4.269,25.95,1111122 
DISL,ioos:station:DISL:KATA:1,2016-08-05T13:30:00Z,30.2583,-88.2131,4.309,25.98,1111122 
DISL,ioos:station:DISL:KATA:1,2016-08-05T14:00:00Z,30.2583,-88.2131,4.351,25.94,1111122 
DISL,ioos:station:DISL:KATA:1,2016-08-05T14:30:00Z,30.2583,-88.2131,4.375,25.93,1111122 
DISL,ioos:station:DISL:KATA:1,2016-08-05T15:00:00Z,30.2583,-88.2131,4.386,25.98,1111122 
DISL,ioos:station:DISL:KATA:1,2016-08-05T15:30:00Z,30.2583,-88.2131,4.39,26.02,1111122 
DISL,ioos:station:DISL:KATA:1,2016-08-05T16:00:00Z,30.2583,-88.2131,4.401,26.01,1111122 
DISL,ioos:station:DISL:KATA:1,2016-08-05T16:30:00Z,30.2583,-88.2131,4.396,26.06,1111122 
DISL,ioos:station:DISL:KATA:1,2016-08-05T17:00:00Z,30.2583,-88.2131,4.391,26.09,1111122 
DISL,ioos:station:DISL:KATA:1,2016-08-05T17:30:00Z,30.2583,-88.2131,4.388,23.52,1111122 
DISL,ioos:station:DISL:KATA:1,2016-08-05T18:00:00Z,30.2583,-88.2131,4.388,25.23,1111122 
DISL,ioos:station:DISL:KATA:1,2016-08-05T18:30:00Z,30.2583,-88.2131,4.381,26.12,1111122 
DISL,ioos:station:DISL:KATA:1,2016-08-05T19:00:00Z,30.2583,-88.2131,4.381,26.22,1111122 
DISL,ioos:station:DISL:KATA:1,2016-08-05T19:30:00Z,30.2583,-88.2131,4.359,26.17,1111122 
DISL,ioos:station:DISL:KATA:1,2016-08-05T20:00:00Z,30.2583,-88.2131,4.33,26.16,1111122 
DISL,ioos:station:DISL:KATA:1,2016-08-05T20:30:00Z,30.2583,-88.2131,4.304,26.16,1111122 
DISL,ioos:station:DISL:KATA:1,2016-08-05T21:00:00Z,30.2583,-88.2131,4.289,26.11,1111122 
DISL,ioos:station:DISL:KATA:1,2016-08-05T21:30:00Z,30.2583,-88.2131,4.257,26.04,1111122 
DISL,ioos:station:DISL:KATA:1,2016-08-05T22:00:00Z,30.2583,-88.2131,4.233,25.98,1111122 
DISL,ioos:station:DISL:KATA:1,2016-08-05T22:30:00Z,30.2583,-88.2131,4.218,25.93,1111122 
DISL,ioos:station:DISL:KATA:1,2016-08-05T23:00:00Z,30.2583,-88.2131,4.189,25.84,1111122 
DISL,ioos:station:DISL:KATA:1,2016-08-05T23:30:00Z,30.2583,-88.2131,4.16,25.7,1111122 
DISL,ioos:station:DISL:KATA:1,2016-08-06T00:00:00Z,30.2583,-88.2131,4.142,25.6,1111122 
DISL,ioos:station:DISL:KATA:1,2016-08-06T00:30:00Z,30.2583,-88.2131,4.132,25.61,1111122 
DISL,ioos:station:DISL:KATA:1,2016-08-06T01:00:00Z,30.2583,-88.2131,4.114,25.57,1111122 
DISL,ioos:station:DISL:KATA:1,2016-08-06T01:30:00Z,30.2583,-88.2131,4.118,25.53,1111122 
DISL,ioos:station:DISL:KATA:1,2016-08-06T02:00:00Z,30.2583,-88.2131,4.119,25.51,1111122 
DISL,ioos:station:DISL:KATA:1,2016-08-06T02:30:00Z,30.2583,-88.2131,4.128,25.45,1111122 
DISL,ioos:station:DISL:KATA:1,2016-08-06T03:00:00Z,30.2583,-88.2131,4.123,25.45,1111122 
DISL,ioos:station:DISL:KATA:1,2016-08-06T03:30:00Z,30.2583,-88.2131,4.14,25.43,1111122 
DISL,ioos:station:DISL:KATA:1,2016-08-06T04:00:00Z,30.2583,-88.2131,4.156,25.34,1111122 
DISL,ioos:station:DISL:KATA:1,2016-08-06T04:30:00Z,30.2583,-88.2131,4.14,25.35,1111122 
DISL,ioos:station:DISL:KATA:1,2016-08-06T05:00:00Z,30.2583,-88.2131,4.116,25.29,1111122 
DISL,ioos:station:DISL:KATA:1,2016-08-06T05:30:00Z,30.2583,-88.2131,4.08,25.33,1111122 
DISL,ioos:station:DISL:KATA:1,2016-08-06T06:00:00Z,30.2583,-88.2131,4.076,25.39,1111122 
DISL,ioos:station:DISL:KATA:1,2016-08-06T06:30:00Z,30.2583,-88.2131,4.143,25.41,1111122 
DISL,ioos:station:DISL:KATA:1,2016-08-06T07:00:00Z,30.2583,-88.2131,4.13,25.42,1111122 
DISL,ioos:station:DISL:KATA:1,2016-08-06T07:30:00Z,30.2583,-88.2131,4.147,25.44,1111122 
DISL,ioos:station:DISL:KATA:1,2016-08-06T08:00:00Z,30.2583,-88.2131,4.201,25.06,1111122 
DISL,ioos:station:DISL:KATA:1,2016-08-06T08:30:00Z,30.2583,-88.2131,4.227,25.46,1111122 
DISL,ioos:station:DISL:KATA:1,2016-08-06T09:00:00Z,30.2583,-88.2131,4.252,25.48,1111122 
DISL,ioos:station:DISL:KATA:1,2016-08-06T09:30:00Z,30.2583,-88.2131,4.259,25.49,1111122 
DISL,ioos:station:DISL:KATA:1,2016-08-06T10:00:00Z,30.2583,-88.2131,4.245,25.5,1111122 
DISL,ioos:station:DISL:KATA:1,2016-08-06T10:30:00Z,30.2583,-88.2131,4.238,25.52,1111122 
DISL,ioos:station:DISL:KATA:1,2016-08-06T11:00:00Z,30.2583,-88.2131,4.212,25.52,1111122 
DISL,ioos:station:DISL:KATA:1,2016-08-06T11:30:00Z,30.2583,-88.2131,4.202,25.1,1111122 
DISL,ioos:station:DISL:KATA:1,2016-08-06T12:00:00Z,30.2583,-88.2131,4.18,25.07,1111122 
DISL,ioos:station:DISL:KATA:1,2016-08-06T12:30:00Z,30.2583,-88.2131,4.195,24.97,1111122 
DISL,ioos:station:DISL:KATA:1,2016-08-06T13:00:00Z,30.2583,-88.2131,4.205,25.03,1111122 
DISL,ioos:station:DISL:KATA:1,2016-08-06T13:30:00Z,30.2583,-88.2131,4.21,24.96,1111122 
DISL,ioos:station:DISL:KATA:1,2016-08-06T14:00:00Z,30.2583,-88.2131,4.234,25.46,1111122 